Change the Weather History Date:

Friday, January 31, 2014

  Actual Average Record
Temperature  
Mean Temperature 21 °F 21 °F  
Max Temperature 32 °F 31 °F 56 °F (2003)
Min Temperature 9 °F 11 °F -25 °F (1951)
Degree Days  
Heating Degree Days 44 44  
Month to date heating degree days 1213 1426  
Since 1 July heating degree days 4669 4922  
Cooling Degree Days 0 0  
Month to date cooling degree days 0 0  
Year to date cooling degree days 0 0  
Moisture  
Dew Point 11 °F    
Average Humidity 64    
Maximum Humidity 84    
Minimum Humidity 43    
Precipitation  
Precipitation 0.00 in 0.01 in 0.22 in (1963)
Month to date precipitation 0.23 0.51  
Year to date precipitation 0.23 0.51  
Sea Level Pressure  
Sea Level Pressure 29.93 in    
Wind  
Wind Speed 4 mph (SSW)    
Max Wind Speed 15 mph    
Max Gust Speed 19 mph    
Visibility 10 miles    
Events      
T = Trace of Precipitation, MM = Missing Value Source: NWS Daily Summary

Daily Weather History Graph

Daily Weather History Graph

Search for Another Location

Airport or City:

Trip Planner

Search our weather history database for the weather conditions in past years. The results will help you decide how hot, cold, wet, or windy it might be!

Date:

Astronomy

Jan. 31, 2014 Rise Set
Actual Time 7:56 AM MST 5:44 PM MST
Civil Twilight 7:25 AM MST 6:15 PM MST
Nautical Twilight 6:50 AM MST 6:50 PM MST
Astronomical Twilight 6:16 AM MST 7:24 PM MST
Moon 8:04 AM MST (1/31) 7:19 PM MST (1/31)
Length of Visible Light 10h 50m
Length of Day
9h 48m
New Moon, 1% of the Moon is Illuminated
Jan 31
New Moon
Feb 6
First Quarter
Feb 14
Full
Feb 22
Last Quarter
Mar 1
New

Hourly Weather History & Observations

Time (MST) Temp. Windchill Dew Point Humidity Pressure Visibility Wind Dir Wind Speed Gust Speed Precip Events Conditions
12:55 AM 16.0 °F - 10.9 °F 81% 29.86 in 10.0 mi Calm Calm - N/A   Clear
1:55 AM 19.0 °F - 12.9 °F 77% 29.84 in 10.0 mi Calm Calm - N/A   Mostly Cloudy
2:55 AM 16.0 °F - 10.9 °F 81% 29.87 in 10.0 mi Calm Calm - N/A   Clear
3:55 AM 14.0 °F 6.5 °F 9.0 °F 80% 29.88 in 10.0 mi NNW 4.6 mph - N/A   Clear
4:55 AM 12.9 °F - 9.0 °F 84% 29.90 in 10.0 mi Calm Calm - N/A   Overcast
5:55 AM 12.0 °F 4.1 °F 8.1 °F 84% 29.92 in 10.0 mi West 4.6 mph - N/A   Mostly Cloudy
6:55 AM 12.0 °F - 8.1 °F 84% 29.94 in 10.0 mi Calm Calm - N/A   Partly Cloudy
7:55 AM 12.0 °F - 7.0 °F 80% 29.96 in 10.0 mi Calm Calm - N/A   Clear
8:55 AM 14.0 °F - 8.1 °F 77% 29.97 in 10.0 mi Calm Calm - N/A   Scattered Clouds
9:55 AM 19.0 °F - 10.9 °F 71% 29.99 in 10.0 mi Calm Calm - N/A   Mostly Cloudy
10:55 AM 19.9 °F 9.3 °F - N/A% 29.97 in 10.0 mi South 9.2 mph - N/A   Mostly Cloudy
11:55 AM 25.0 °F 16.3 °F 10.9 °F 55% 29.96 in 10.0 mi SE 8.1 mph - N/A   Scattered Clouds
12:55 PM 28.9 °F 21.9 °F 10.0 °F 45% 29.91 in 10.0 mi SE 6.9 mph - N/A   Clear
1:55 PM 30.9 °F 21.7 °F 10.0 °F 42% 29.88 in 10.0 mi South 11.5 mph - N/A   Clear
2:55 PM 30.9 °F 23.5 °F 10.0 °F 42% 29.88 in 10.0 mi South 8.1 mph - N/A   Scattered Clouds
3:55 PM 30.9 °F 22.8 °F 10.9 °F 43% 29.89 in 10.0 mi South 9.2 mph - N/A   Partly Cloudy
4:55 PM 30.9 °F 22.8 °F 12.0 °F 46% 29.91 in 10.0 mi South 9.2 mph - N/A   Overcast
5:55 PM 26.1 °F 20.5 °F 17.1 °F 69% 29.94 in 10.0 mi NNW 4.6 mph - N/A   Overcast
6:55 PM 21.0 °F 14.6 °F 15.1 °F 78% 29.97 in 10.0 mi SW 4.6 mph - N/A   Mostly Cloudy
7:55 PM 24.1 °F 19.7 °F 15.1 °F 69% 29.97 in 10.0 mi SSE 3.5 mph - N/A   Overcast
8:55 PM 21.9 °F - 14.0 °F 72% 29.96 in 10.0 mi Calm Calm - N/A   Mostly Cloudy
9:55 PM 21.9 °F - 14.0 °F 72% 29.95 in 10.0 mi Calm Calm - N/A   Overcast
10:55 PM 19.0 °F 12.3 °F 12.9 °F 77% 29.96 in 10.0 mi NW 4.6 mph - N/A   Scattered Clouds
11:55 PM 19.0 °F 13.9 °F 12.0 °F 74% 29.96 in 10.0 mi NNW 3.5 mph - N/A   Overcast